Location: Chamerau
(49.1969°N, 12.7525°E)
Time: 02:13:20
(UTC+00:00)

Cosmos 1626 - Pass Details

Date: 18 September 2020
Orbit: 490 x 495 km, 82.5° (Epoch: 24 October)

Event Time Altitude Azimuth Distance (km) Brightness Sun altitude
Rises 18:37:55 0° 4° (N) 2,591 6.0 -14.1°
Reaches altitude 10° 18:40:40 10° 26° (NNE) 1,701 4.8 -14.5°
Enters shadow 18:42:48 16° 61° (ENE) 1,343 3.9 -14.9°
